Simultaneous Nadir Overpasses (SNOs) Predictions

Prediction of SNOs between LANDSAT-8 and METOP-A Satellite Orbit:

Table of predicted SNOs for the next 14.0 days since TLE Epoch: 2/27/2021
Index Date (LANDSAT-8) Time (LANDSAT-8) Lat,Lon (LANDSAT-8) SZA (LANDSAT-8 ) Date (METOP-A) Time (METOP-A) Lat,Lon (METOP-A) SZA (METOP-A ) Distance(km) Time Diff (sec)
1 02/27/2021 06:47:56 -81.42, -57.12 88.24 02/27/2021 06:47:09 -81.42, -57.05 88.26 1.14 47
2 02/27/2021 07:37:23 81.41, 110.30 91.72 02/27/2021 07:37:50 81.42, 110.29 91.74 1.08 27
3 03/02/2021 02:22:09 -81.42, 9.31 89.30 03/02/2021 02:21:30 -81.42, 9.30 89.31 0.09 39
4 03/02/2021 03:11:36 81.41, 176.69 90.66 03/02/2021 03:12:11 81.42, 176.62 90.68 1.75 35
5 03/04/2021 21:56:23 -81.42, 75.69 90.37 03/04/2021 21:55:52 -81.42, 75.63 90.38 0.98 31
6 03/04/2021 22:45:49 81.42,-116.57 89.64 03/04/2021 22:46:32 81.41,-116.67 89.64 2.15 43
7 03/07/2021 17:30:37 -81.41, 142.02 91.45 03/07/2021 17:30:14 -81.42, 141.94 91.46 1.74 23
8 03/07/2021 18:20:03 81.42, -50.26 88.55 03/07/2021 18:20:54 81.41, -50.38 88.56 2.01 51
9 03/10/2021 13:04:50 -81.43,-151.29 92.50 03/10/2021 13:04:35 -81.41,-151.39 92.52 2.07 15



Historial Predications of SNOs between LANDSAT-8 and METOP-A
